#timestamp,LO_Frequency,Hit,StdDev 
1455210015.7,286046990.5,P
1455210035.5,286046991.0,Y
1455210055.3,286046997.1,P
1455210075.2,286046993.3,P
1455210095.9,286046992.5,P
1455210115.7,286046990.8,Y
1455210135.6,286046997.6,P
1455210155.4,286046994.1,P
1455210175.2,286046992.4,P
1455210195.1,286046991.6,Y
1455210196.0,286046991.6,P
1455210215.8,286046993.5,P
1455210235.6,286046993.0,P
1455210255.5,286046992.7,Y
1455210275.3,286046999.2,P
1455210295.1,286046997.2,N
1455210315.9,286046997.0,N
1455210335.7,286046997.4,N
1455210355.5,286046997.8,N
1455210375.4,286046996.9,N
1455210395.2,286046998.0,N
1455210415.0,286046995.5,N
1455210415.9,286046995.5,N
1455210435.8,286046995.5,N
1455210455.6,286046996.3,N
1455210475.4,286046991.9,Y
1455210495.3,286046995.1,P
1455210515.1,286046993.4,P
1455210516.0,286046993.4,P
1455210535.8,286046993.5,Y
1455210555.7,286046998.6,P
1455210575.5,286046998.9,N
1455210595.3,286046997.5,N
1455210615.2,286046995.7,N
1455210635.9,286046998.0,N
1455210655.7,286046997.2,N
1455210675.6,286046993.7,Y
1455210695.4,286046996.9,P
1455210715.2,286046999.5,P
1455210735.0,286046999.2,N
1455210736.0,286046999.2,N
1455210755.8,286046997.8,N
1455210775.6,286046993.4,Y
1455210795.5,286046996.9,P
1455210815.3,286046997.3,P
1455210835.1,286046999.0,N
1455210855.9,286046996.5,Y
1455210875.7,286046999.4,P
1455210895.5,286046999.2,N
1455210915.3,286047000.9,N
1455210935.2,286046997.0,N
1455210955.0,286046997.2,N
1455210955.9,286046997.2,N
1455210975.7,286046997.0,N
1455210995.6,286046996.7,N
1455211015.4,286046996.9,N
1455211035.2,286046997.6,N
1455211055.1,286046997.1,N
1455211056.0,286046997.1,N
1455211075.8,286046995.3,Y
1455211095.6,286046997.8,P
1455211115.5,286046996.1,P
1455211135.3,286046995.6,P
1455211155.1,286046996.2,Y
1455211175.9,286046996.8,P
1455211195.7,286046997.0,P
1455211215.5,286046997.4,P
1455211235.4,286046997.5,Y
1455211255.2,286046998.5,P
1455211275.0,286046998.7,N
1455211275.9,286046998.7,N
1455211295.8,286047001.2,N
1455211315.6,286046998.4,N
1455211335.4,286047001.2,N
1455211355.3,286046999.2,N
1455211375.1,286047000.4,N
1455211376.0,286047000.4,N
1455211395.8,286047002.1,N
1455211415.7,286047001.0,N
1455211435.5,286047000.1,N
1455211455.3,286047002.3,N
1455211475.2,286047000.3,N
1455211495.9,286047001.6,N
1455211515.7,286047003.9,N
1455211535.6,286047000.4,N
1455211555.4,286047000.8,N
1455211575.2,286046999.1,N
1455211595.0,286046997.0,N
1455211595.9,286046997.0,N
1455211615.8,286046999.5,N
1455211635.6,286046997.3,N
1455211655.4,286046997.6,N
1455211675.3,286046997.1,N
1455211695.1,286046997.2,N
1455211715.8,286046999.6,N
1455211735.7,286046998.6,N
1455211755.5,286047001.2,N
1455211775.3,286047006.0,Y
1455211795.2,286047007.0,P
1455211815.9,286047008.6,N
1455211835.7,286047007.5,N
1455211855.6,286047007.6,N
1455211875.4,286047010.6,Y
1455211895.2,286047004.4,P
1455211915.1,286047004.1,P
1455211916.0,286047004.1,P
1455211935.8,286047005.1,Y
1455211955.6,286047002.7,P
1455211975.5,286046998.4,N
1455211995.3,286047007.3,N
1455212015.1,286047003.9,N
1455212035.9,286047004.1,N
1455212055.7,286047003.5,N
1455212075.5,286047005.4,N
1455212095.4,286047004.8,N
1455212115.2,286047004.6,N
1455212135.0,286047006.6,Y
1455212135.9,286047006.6,P
1455212155.8,286047002.6,N
1455212175.6,286047009.2,P
1455212195.4,286047006.9,N
1455212215.3,286047009.0,Y
1455212235.1,286047003.8,P
1455212236.0,286047003.8,P
1455212255.8,286047004.4,P
1455212275.7,286047005.6,Y
1455212295.5,286047000.1,P
1455212315.3,286047000.7,N
1455212335.2,286046998.1,N
1455212355.9,286047004.4,N
1455212375.7,286047002.0,N
1455212395.6,286047001.9,N
1455212415.4,286047003.2,N
1455212435.2,286047008.4,Y
1455212455.1,286047005.2,P
1455212456.0,286047005.2,P
1455212475.8,286047008.1,P
1455212495.6,286047012.7,Y
1455212515.5,286047012.2,P
1455212535.3,286047015.3,P
1455212555.1,286047018.3,P
1455212575.9,286047021.5,Y
1455212595.7,286047010.4,P
1455212615.5,286047012.6,P
1455212635.4,286047015.3,P
1455212655.2,286047017.1,Y
1455212675.0,286047006.8,P
1455212675.9,286047006.8,N
1455212695.8,286047005.0,N
1455212715.6,286047001.7,N
1455212735.4,286047002.8,N
1455212755.3,286047000.1,N
1455212775.1,286047009.4,N
1455212776.0,286047009.4,N
1455212795.8,286047040.1,Y
1455212815.7,286047063.5,P
1455212835.5,286047075.0,N
1455212855.3,286047080.4,N
1455212875.2,286047089.8,Y
1455212895.9,286047022.0,P
1455212915.7,286047009.0,N
1455212935.5,286046982.3,N
1455212955.4,286046973.3,N
1455212975.2,286046965.0,N
1455212995.0,286046961.8,N
1455212995.9,286046961.8,N
1455213015.8,286046961.1,N
1455213035.6,286046960.9,N
1455213055.4,286046956.5,N
1455213075.3,286046957.1,N
1455213095.1,286046953.3,N
1455213115.8,286046954.7,N
1455213135.7,286046954.7,N
1455213155.5,286046949.7,N
1455213175.3,286046945.7,N
1455213195.2,286046947.3,N
1455213215.9,286046949.7,N
1455213235.7,286046944.3,N
1455213255.5,286046939.4,N
1455213275.4,286046937.4,N
1455213295.2,286046936.9,N
1455213315.0,286046933.1,N
1455213315.9,286046933.1,N
1455213335.8,286046932.1,N
1455213355.6,286046928.1,N
1455213375.4,286046927.9,N
1455213395.3,286046928.3,N
1455213415.1,286046926.7,N
1455213416.0,286046926.7,N
1455213435.8,286046925.7,Y
1455213455.7,286046971.2,P
1455213475.5,286046971.1,P
1455213495.3,286046968.2,P
1455213515.2,286046965.9,Y
1455213535.0,286046998.4,P
1455213535.9,286046998.4,N
1455213555.7,286046997.9,N
1455213575.6,286046994.6,N
1455213595.4,286046993.2,N
1455210015.8,286046988.7,Y
1455210035.7,286046992.4,P
1455210055.5,286046992.9,P
1455210075.3,286046989.8,P
1455210095.2,286046986.1,Y
1455210115.0,286046993.7,P
1455210115.9,286046993.7,P
1455210135.7,286046991.7,P
1455210155.6,286046990.9,Y
1455210175.4,286046997.6,P
1455210195.2,286046997.6,N
1455210215.1,286046992.2,P
1455210216.0,286046992.2,Y
1455210235.8,286046997.8,P
1455210255.7,286046999.6,N
1455210275.5,286046995.5,N
1455210295.3,286046992.8,Y
1455210315.2,286046994.5,P
1455210335.9,286046993.4,P
1455210355.7,286046994.0,P
1455210375.6,286046991.3,Y
1455210395.4,286046995.8,P
1455210415.2,286046994.8,P
1455210435.0,286046992.8,P
1455210436.0,286046992.8,Y
1455210455.8,286047000.9,P
1455210475.6,286046996.7,N
1455210495.5,286046995.1,N
1455210515.3,286046997.1,N
1455210535.1,286046997.7,N
1455210555.8,286046994.0,N
1455210575.7,286046992.4,Y
1455210595.5,286046993.7,P
1455210615.3,286046995.2,P
1455210635.2,286046995.5,P
1455210655.0,286046994.3,Y
1455210655.9,286046994.3,P
1455210675.8,286046999.3,N
1455210695.6,286047001.2,N
1455210715.4,286046998.6,N
1455210735.2,286046999.5,N
1455210755.1,286047000.6,N
1455210756.0,286047000.6,N
1455210775.8,286046998.8,N
1455210795.6,286046998.4,N
1455210815.5,286046999.7,N
1455210835.3,286047000.6,N
1455210855.1,286046998.4,N
1455210875.9,286046998.9,N
1455210895.7,286046996.6,N
1455210915.5,286046993.8,Y
1455210935.4,286046995.5,P
1455210955.2,286046992.7,P
1455210975.0,286046992.1,P
1455210975.9,286046992.1,Y
1455210995.8,286046998.6,P
1455211015.6,286046996.5,N
1455211035.4,286046995.3,P
1455211055.3,286046995.9,N
1455211075.1,286046992.5,Y
1455211095.8,286046997.0,P
1455211115.7,286046995.8,P
1455211135.5,286046999.1,N
1455211155.3,286046994.5,Y
1455211175.2,286046995.6,P
1455211195.9,286046997.2,P
1455211215.7,286046997.2,P
1455211235.6,286046997.5,Y
1455211255.4,286047001.9,P
1455211275.2,286047004.1,N
1455211295.1,286047001.3,N
1455211296.0,286047001.3,N
1455211315.8,286047005.6,N
1455211335.6,286047006.2,N
1455211355.5,286047006.6,N
1455211375.3,286047006.3,N
1455211395.1,286047009.9,Y
1455211415.9,286047006.6,P
1455211435.7,286047003.8,N
1455211455.5,286047003.4,N
1455211475.4,286047003.3,N
1455211495.2,286047003.6,N
1455211515.0,286047005.4,Y
1455211515.9,286047005.4,P
1455211535.8,286047002.6,P
1455211555.6,286047006.0,P
1455211575.4,286047006.9,Y
1455211595.3,286047002.3,P
1455211615.1,286047002.7,N
1455211616.0,286047002.7,N
1455211635.8,286047003.6,Y
1455211655.7,286047000.7,P
1455211675.5,286047000.8,N
1455211695.3,286046998.3,N
1455211715.2,286046994.9,Y
1455211735.9,286046996.1,P
1455211755.7,286046991.4,P
1455211775.6,286046990.1,N
1455211795.4,286046990.5,N
1455211815.2,286046989.7,N
1455211835.1,286046988.3,N
1455211836.0,286046988.3,N
1455211855.8,286046985.4,Y
1455211875.6,286046992.4,P
1455211895.5,286046992.7,P
1455211915.3,286046990.5,P
1455211935.1,286046986.9,Y
1455211955.9,286046999.8,P
1455211975.7,286047003.8,N
1455211995.5,286047001.3,N
1455212015.4,286047003.5,N
1455212035.2,286047003.2,N
1455212055.0,286047002.9,N
1455212055.9,286047002.9,N
1455212075.8,286047001.5,N
1455212095.6,286047000.1,N
1455212115.4,286047004.3,N
1455212135.2,286047003.7,N
1455212155.1,286047004.2,N
1455212156.0,286047004.2,N
1455212175.8,286047003.3,N
1455212195.6,286047004.0,N
1455212215.5,286047000.3,N
1455212235.3,286047000.2,N
1455212255.1,286047001.1,N
1455212275.9,286046999.7,N
1455212295.7,286047001.3,N
1455212315.5,286047002.2,N
1455212335.4,286047000.2,N
1455212355.2,286047000.0,N
1455212375.0,286046999.6,N
1455212375.9,286046999.6,N
1455212395.8,286046999.3,N
1455212415.6,286046998.1,N
1455212435.4,286046999.2,N
1455212455.2,286046996.9,N
1455212475.1,286047001.0,N
1455212476.0,286047001.0,N
1455212495.8,286047000.3,N
1455212515.6,286046998.2,N
1455212535.5,286047000.7,N
1455212555.3,286047000.4,N
1455212575.1,286046998.1,N
1455212595.9,286047000.5,N
1455212615.7,286047003.5,N
1455212635.5,286047009.2,Y
1455212655.4,286047008.8,P
1455212675.2,286047007.2,N
1455212695.0,286047009.1,N
1455212695.9,286047009.1,N
1455212715.8,286047008.4,N
1455212735.6,286047008.1,N
1455212755.4,286047008.8,Y
1455212775.3,286047002.6,P
1455212795.1,286047000.9,N
1455212796.0,286047000.9,N
1455212815.8,286047000.6,N
1455212835.7,286047002.7,N
1455212855.5,286047003.9,N
1455212875.3,286047005.1,N
1455212895.2,286047006.4,N
1455212915.9,286047007.1,Y
1455212935.7,286047005.9,P
1455212955.6,286047007.1,P
1455212975.4,286047007.6,P
1455212995.2,286047005.2,Y
1455213015.1,286047004.3,P
1455213016.0,286047004.3,P
1455213035.8,286047002.8,P
1455213055.6,286046998.4,N
1455213075.5,286046999.2,N
1455213095.3,286046996.9,N
1455213115.1,286046997.8,N
1455213135.8,286046995.1,N
1455213155.7,286046999.2,N
1455213175.5,286046998.5,N
1455213195.3,286047003.4,N
1455213215.2,286047004.9,N
1455213235.9,286047006.5,N
1455213255.7,286047003.0,N
1455213275.6,286047004.3,N
1455213295.4,286047005.8,N
1455213315.2,286047006.0,N
1455213335.1,286047001.7,N
1455213336.0,286047001.7,N
1455213355.8,286047004.3,N
1455213375.6,286047004.1,N
1455213395.5,286047002.9,N
1455213415.3,286047005.7,N
1455213435.1,286047001.4,N
1455213455.8,286047000.4,N
1455213475.7,286047000.8,N
1455213495.5,286046998.3,N
1455213515.3,286046994.9,N
1455213535.2,286046995.9,N
1455213555.9,286046997.8,N
1455213575.7,286046997.1,N
1455213595.6,286046998.4,N
1455210015.5,286047008.3,N
1455210035.3,286047007.5,N
1455210055.2,286047003.9,N
1455210075.9,286047000.2,N
1455210095.7,286046999.5,N
1455210115.6,286046995.1,N
1455210135.4,286046995.4,N
1455210155.2,286046993.5,N
1455210175.1,286046992.0,N
1455210176.0,286046992.0,N
1455210195.8,286046991.2,N
1455210215.6,286046986.0,N
1455210235.4,286046982.2,N
1455210255.3,286046980.8,N
1455210275.1,286046981.9,N
1455210295.8,286046979.8,N
1455210315.7,286046979.1,N
1455210335.5,286046982.0,N
1455210355.3,286046979.6,N
1455210375.2,286046980.2,N
1455210395.9,286046974.2,N
1455210415.7,286046975.7,N
1455210435.6,286046976.0,N
1455210455.4,286046976.6,N
1455210475.2,286046972.5,N
1455210495.1,286046973.1,N
1455210496.0,286046973.1,N
1455210515.8,286046970.4,N
1455210535.6,286046969.6,N
1455210555.5,286046967.7,N
1455210575.3,286046968.3,N
1455210595.1,286046969.8,N
1455210615.8,286046969.7,N
1455210635.7,286046970.1,Y
1455210655.5,286046987.7,P
1455210675.4,286046985.3,P
1455210695.2,286046983.8,P
1455210715.0,286046984.6,Y
1455210715.9,286046984.6,P
1455210735.8,286046996.9,P
1455210755.6,286046995.5,N
1455210775.4,286046991.8,N
1455210795.2,286046993.9,N
1455210815.1,286046991.8,N
1455210816.0,286046991.8,N
1455210835.8,286046994.0,N
1455210855.6,286046992.1,N
1455210875.5,286046994.7,N
1455210895.3,286046990.3,N
1455210915.1,286046992.8,N
1455210935.9,286046987.1,Y
1455210955.7,286046993.8,P
1455210975.5,286046992.3,P
1455210995.4,286046992.6,P
1455211015.2,286046992.8,Y
1455211035.0,286046999.9,P
1455211035.9,286046999.9,N
1455211055.8,286046999.8,N
1455211075.6,286046999.9,N
1455211095.4,286047002.3,N
1455211115.3,286047005.6,N
1455211135.1,286047005.9,N
1455211155.8,286047001.7,N
1455211175.7,286046998.3,N
1455211195.5,286046997.0,N
1455211215.3,286046998.0,N
1455211235.2,286046995.5,N
1455211255.9,286046995.1,N
1455211275.7,286046999.5,N
1455211295.6,286046999.5,N
1455211315.4,286046998.0,N
1455211335.2,286046995.7,N
1455211355.0,286046994.5,N
1455211355.9,286046994.5,N
1455211375.8,286046992.7,N
1455211395.6,286046992.7,N
1455211415.4,286046991.4,N
1455211435.3,286046990.5,N
1455211455.1,286046992.8,N
1455211475.8,286046991.9,N
1455211495.7,286046997.1,N
1455211515.5,286046996.3,N
1455211535.3,286046994.7,N
1455211555.2,286046992.8,N
1455211575.9,286046989.8,N
1455211595.7,286046988.9,N
1455211615.6,286046990.4,N
1455211635.4,286046994.8,N
1455211655.2,286046991.7,N
1455211675.0,286046993.7,N
1455211675.9,286046993.7,N
1455211695.8,286046996.4,N
1455211715.6,286046992.9,N
1455211735.4,286046992.7,N
1455211755.3,286046994.4,N
1455211775.1,286046996.4,N
1455211795.8,286046997.7,N
1455211815.7,286046995.9,N
1455211835.5,286046993.4,N
1455211855.3,286046994.2,N
1455211875.2,286046988.6,Y
1455211895.9,286046996.1,P
1455211915.7,286046998.0,N
1455211935.6,286046997.3,N
1455211955.4,286046999.2,N
1455211975.2,286046999.1,N
1455211995.1,286046997.2,N
1455211996.0,286046997.2,N
1455212015.8,286046996.5,N
1455212035.6,286046995.0,Y
1455212055.5,286046999.1,P
1455212075.3,286046998.1,N
1455212095.1,286046997.0,P
1455212115.9,286046995.4,Y
1455212135.7,286046997.2,P
1455212155.5,286046998.7,P
1455212175.4,286047001.0,N
1455212195.2,286046999.7,N
1455212215.0,286047000.0,N
1455212215.9,286047000.0,N
1455212235.8,286046999.1,N
1455212255.6,286046997.2,N
1455212275.4,286046997.5,N
1455212295.2,286046996.9,N
1455212315.1,286046995.5,Y
1455212316.0,286046995.5,P
1455212335.8,286046999.4,N
1455212355.6,286046995.0,N
1455212375.5,286046999.2,N
1455212395.3,286046996.8,N
1455212415.1,286046995.5,N
1455212435.9,286046996.4,N
1455212455.7,286046996.3,N
1455212475.5,286046999.4,N
1455212495.4,286047000.8,N
1455212515.2,286046998.6,N
1455212535.0,286046995.9,N
1455212535.9,286046995.9,N
1455212555.8,286046996.2,N
1455212575.6,286046993.9,Y
1455212595.4,286046997.2,P
1455212615.3,286046996.4,P
1455212635.1,286046994.9,P
1455212636.0,286046994.9,Y
1455212655.8,286046998.8,P
1455212675.7,286046997.5,N
1455212695.5,286046993.7,P
1455212715.3,286046996.0,N
1455212735.2,286046995.0,N
1455212755.9,286046997.1,N
1455212775.7,286046996.2,N
1455212795.6,286046997.2,N
1455212815.4,286046997.2,N
1455212835.2,286046999.6,N
1455212855.0,286046999.3,N
1455212856.0,286046999.3,N
1455212875.8,286046998.4,N
1455212895.6,286046999.5,N
1455212915.4,286046999.1,N
1455212935.3,286047000.3,N
1455212955.1,286046999.6,N
1455212975.8,286046996.6,N
1455212995.7,286047000.6,N
1455213015.5,286046998.5,N
1455213035.3,286046999.6,N
1455213055.2,286046998.6,N
1455213075.9,286046999.2,N
1455213095.7,286046999.1,N
1455213115.6,286046996.5,N
1455213135.4,286046999.2,N
1455213155.2,286046997.4,N
1455213175.0,286046997.5,N
1455213175.9,286046997.5,N
1455213195.8,286046996.9,N
1455213215.6,286046995.4,N
1455213235.4,286046998.0,N
1455213255.3,286046997.8,N
1455213275.1,286046995.0,Y
1455213295.8,286046995.6,P
1455213315.7,286046994.0,P
1455213335.5,286046995.8,N
1455213355.3,286046998.8,N
1455213375.2,286046998.2,N
1455213395.9,286046998.1,N
1455213415.7,286047001.2,N
1455213435.6,286047002.4,N
1455213455.4,286046999.1,N
1455213475.2,286047001.4,N
1455213495.0,286047003.0,N
1455213496.0,286047003.0,N
1455213515.8,286047002.5,N
1455213535.6,286047000.7,N
1455213555.4,286046997.5,N
1455213575.3,286046999.5,N
1455213595.1,286046999.0,N
